Regional Weather Roundup
Issued by NWS

Home | Current Version | Previous Version | Text Only | Print | Product List | Glossary Off
Versions: 1 2 3 4 5 6 7 8 9 10 11 12 13 14 15 16 17 18 19 20 21 22 23 24 25 26 27 28 29 30 31 32 33 34 35 36 37 38 39 40 41 42 43 44 45 46 47 48 49 50

000
ASUS43 KFSD 230202
RWRSD

WEATHER ROUNDUP FOR SOUTH DAKOTA
NATIONAL WEATHER SERVICE SIOUX FALLS SD
900 PM CDT MON SEP 22 2014

NOTE: "FAIR" INDICATES FEW OR NO CLOUDS BELOW 12,000 FEET WITH NO
SIGNIFICANT WEATHER AND/OR OBSTRUCTIONS TO VISIBILITY.


SDZ001>005-009-010-012>017-230300-
NORTHWEST AND NORTH CENTRAL SOUTH DAKOTA

CITY           SKY/WX    TMP DP  RH WIND       PRES   REMARKS
FAITH            N/A     65  53  65 SE13      29.91S
MOBRIDGE       CLEAR     71  51  49 S13       29.94S
$$

SDZ012>016-024>037-041>051-057-063-072>074-230300-
SOUTHWEST AND SOUTH CENTRAL SOUTH DAKOTA

CITY           SKY/WX    TMP DP  RH WIND       PRES   REMARKS
RAPID CTY ARPT CLOUDY    64  56  75 S8        29.93R
PIERRE         CLOUDY    66  51  58 S15       29.99S
CUSTER         CLOUDY    57  52  83 NW6       30.08S
ELLSWORTH AFB  DRIZZLE   64  57  77 W12       29.92S
PHILIP         MOCLDY    67  53  61 S15       29.93S
PINE RIDGE     CLOUDY    65  55  70 S13       30.02R
WINNER         FAIR      65  52  62 S20G30    30.05S
$$

SDZ004>011-016>023-039-040-230300-
NORTHEAST SOUTH DAKOTA

CITY           SKY/WX    TMP DP  RH WIND       PRES   REMARKS
ABERDEEN       CLEAR     63  49  60 S12       30.05R
WATERTOWN      CLEAR     61  48  62 S9        30.10S
SISSETON         N/A     55  49  80 S7        30.07S
$$

SDZ017-020-022-023-036>040-048>070-230300-
SOUTHEAST SOUTH DAKOTA

CITY           SKY/WX    TMP DP  RH WIND       PRES   REMARKS
SIOUX FALLS    MOCLDY    64  49  57 S12       30.14R
HURON          PTCLDY    66  49  54 S10       30.07R
CHAMBERLAIN    CLOUDY    65  50  58 S10       30.05S
MITCHELL       MOCLDY    67  51  56 S13       30.10R
YANKTON        MOCLDY    63  52  67 SE7       30.13S
$$

ABBREVIATIONS USED IN REMARKS
   TC - TEMPERATURE IN CELSIUS
  WCI - WIND CHILL INDEX
   HX - HEAT INDEX
  VSB - VISIBILITY




USA.gov is the U.S. government's official web portal to all federal, state and local government web resources and services.